Content
SEND FEEDBACK

Daily
Averages
Monthly
Summary
Turkmenistan

ASHGABAT, TURKMENISTAN


Home > Asia > Turkmenistan
Elevation: 775 feet     Latitude: 37 58N     Longitude: 058 20E

WEATHER
 
SELECT A DAY
Number of Records: 177,096;   Date Range: 3/15/97 - 7/20/14
 
SHARE

PRINT THIS DATA

[ ← Previous Day ]
WEATHER ALMANAC - MAY 13, 2014
[ Next Day → ]
[ °C ]   °F
Weather ElementAverageHighLow
Temperature73.5 °F89.6 °F (4:00 pm) (11:00 am)
Dewpoint18.4 °F31 °F (2:00 pm) (7:00 pm)
Humidity11.8 %27 % (3:00 am)4 % (2:00 pm)
Barometer29.92 in29.98 in (8:00 am)29.83 in (11:00 pm)
Wind Speed8.9 mph11.2 mph (5:00 am)
Weather ElementAverage
Visibility6.1 mi
Wind DirectionESE (113 °)

Weather ElementTotal
Precipitation---
Heating Degree Days20.2 (Base 65)
Averaged from 33 records on May 13, 2014
WEATHER CONDITIONS BREAKOUT
WIND DIRECTION BREAKOUT
WEATHER BY HOUR - MAY 13, 2014
[ °C ]   °F
Local TimeTemperatureDewpointHumidityBarometerVisibilityWind DirectionWind SpeedGust SpeedPrecipitationEventsConditions
1:00 AM68.0 °F28.4 °F23 %29.95 in6.2 miEast (100°)8.9 mphClear
2:00 AM68.0 °F30.0 °F14 %29.97 in6.0 miSSE (150°)8.9 mph
2:00 AM69.8 °F21.2 °F16 %29.95 in6.2 miSSE (150°)8.9 mphClear
3:00 AM62.6 °F28.4 °F27 %29.92 in6.2 miESE (110°)6.7 mphClear
4:00 AM62.6 °F28.4 °F27 %29.92 in6.2 miESE (120°)6.7 mphClear
5:00 AM64.0 °F23.0 °F11 %29.97 in6.0 miESE (120°)8.9 mph
5:00 AM66.2 °F17.6 °F15 %29.92 in6.2 miESE (120°)11.2 mphClear
6:00 AM60.8 °F21.2 °F22 %29.95 in6.2 miESE (120°)8.9 mphClear
7:00 AM64.4 °F19.4 °F18 %29.95 in5.6 miSE (140°)4.5 mphClear
8:00 AM69.0 °F16.0 °F6 %29.98 in6.0 miESE (120°)8.9 mph
8:00 AM69.8 °F19.4 °F15 %29.95 in6.2 miESE (110°)8.9 mphClear
8:30 AM71.6 °F19.4 °F14 %29.98 in6.2 miESE (110°)8.9 mphClear
9:00 AM73.4 °F19.4 °F13 %29.98 in6.2 miESE (110°)11.2 mphClear
9:30 AM75.2 °F21.2 °F13 %29.98 in6.2 miEast (100°)11.2 mphClear
10:00 AM75.2 °F19.4 °F12 %29.98 in6.2 miEast (90°)11.2 mphClear
10:30 AM77.0 °F19.4 °F12 %29.95 in6.2 miEast (100°)8.9 mphClear
11:00 AM0.0 °F0.0 °FNorth
11:00 AM77.0 °F25.0 °F7 %29.97 in6.0 miENE (70°)11.2 mph
12:00 PM82.4 °F19.4 °F10 %29.95 in6.2 miESE (110°)8.9 mphClear
1:00 PM86.0 °F14.0 °F7 %29.95 in6.2 miENE (60°)6.7 mphClear
2:00 PM86.0 °F31.0 °F7 %29.92 in6.0 miESE (110°)6.7 mph
2:00 PM87.8 °F5.0 °F4 %29.92 in6.2 miEast (90°)6.7 mphClear
3:00 PM87.8 °F1.4 °F4 %29.89 in6.2 miEast (100°)8.9 mphClear
4:00 PM89.6 °F6.8 °F4 %29.89 in6.2 miEast (90°)11.2 mphClear
5:00 PM89.6 °F8.6 °F5 %29.86 in6.2 miEast (90°)11.2 mphClear
5:00 PM89.0 °F15.0 °F4 %29.87 in6.0 miEast (100°)11.2 mph
6:00 PM89.6 °F8.6 °F5 %29.86 in6.2 miESE (110°)11.2 mphClear
7:00 PM87.8 °F12.2 °F6 %29.86 in6.2 miESE (120°)11.2 mphClear
8:00 PM83.0 °F22.0 °F4 %29.86 in6.0 miSE (140°)8.9 mph
9:00 PM77.0 °F19.4 °F12 %29.86 in3.7 miSSE (150°)4.5 mphClear
11:00 PM73.0 °F26.0 °F9 %29.86 in6.0 miSouth (170°)6.7 mph
11:00 PM71.6 °F21.2 °F15 %29.83 in6.2 miSouth (180°)8.9 mphClear
11:30 PM71.6 °F21.2 °F15 %29.83 in6.2 miSouth (170°)6.7 mphClear
Hourly data recorded from UTAA, located miles away from Ashgabat, Turkmenistan







STORIES FROM OUR PARTNERS